Погода в О-Шынаа

Россия / Республика Тыва     50°39′24″N   93°44′38″E
темп.,
°C
ветер,
м/с
пор.,
м/с
влажн.,
%
обл.,
%
осадки,
мм/ч
давл.,
гПа
погр.,
м
29 января, сб
сб2901:00−29с229358 0.0 104810
04:00−29с219354 0.0 10499
07:00−30с229362 0.0 10509
10:00−28ссв119584 0.0 105029
13:00−26ююз119685 0.0 1049168
16:00−25юз119666 0.0 104996
19:00−29с229595 0.0 10529
22:00−29с229798 0.0 105311
30 января, вс
вс3001:00−30с229897 0.1 105311
04:00−29с119999 0.0 105326
07:00−29ссз1199100 0.1 105414
10:00−28юз119891 0.0 105496
13:00−26юз119480 0.0 1052212
16:00−25зюз119555 0.0 1051147
19:00−29с229143 0.0 10539
22:00−30с229360 0.0 105410
31 января, пн
пн3101:00−31с229463 0.0 105411
04:00−31с229480 0.0 105411
07:00−31с229685 0.0 105410
10:00−29с119685 0.0 105369
13:00−27юз219692 0.0 1051215
16:00−26зюз119665 0.0 1050142
19:00−30с229472 0.0 10539
22:00−31с229362 0.0 105410
1 февраля, вт
вт101:00−31с229449 0.0 105410
04:00−31с229464 0.0 10549
07:00−32с229252 0.0 10559
10:00−29с019245 0.0 105558
13:00−26юз219345 0.0 1052172
16:00−26юз119473 0.0 1052120
19:00−29с228670 0.0 10549
22:00−30с228758 0.0 10569
2 февраля, ср
ср201:00−31с228648 0.0 10569
04:00−31с228680 0.0 10569
07:00−31с218950 0.0 10569
10:00−29ссв019245 0.0 105555
13:00−26юз119448 0.0 1052158
16:00−26ююз119542 0.0 1051107
19:00−29с229044 0.0 10539
22:00−30с229438 0.0 10549